Time,TemperatureF,DewpointF,PressureIn,WindDirection,WindDirectionDegrees,WindSpeedMPH,WindSpeedGustMPH,Humidity,HourlyPrecipIn,Conditions,Clouds,dailyrainin,SoftwareType,DateUTC
2013-03-06 00:00:00,62.1,55.8,30.09,West,266,0.0,3.0,80,0.00,,,0.00,meteohub,2013-03-06 05:00:00,
2013-03-06 00:05:00,61.9,55.6,30.09,West,259,0.0,2.0,80,0.00,,,0.00,meteohub,2013-03-06 05:05:00,
2013-03-06 00:10:00,61.5,55.6,30.09,WSW,258,0.0,2.0,81,0.00,,,0.00,meteohub,2013-03-06 05:10:00,
2013-03-06 00:15:00,61.3,55.4,30.09,WSW,258,0.0,2.0,81,0.00,,,0.00,meteohub,2013-03-06 05:15:00,
2013-03-06 00:20:00,61.2,55.2,30.09,West,262,0.0,1.0,81,0.00,,,0.00,meteohub,2013-03-06 05:20:00,
2013-03-06 00:25:00,61.2,55.6,30.09,WNW,286,0.0,3.0,82,0.00,,,0.00,meteohub,2013-03-06 05:25:00,
2013-03-06 00:30:00,61.0,55.4,30.09,WNW,285,0.0,3.0,82,0.00,,,0.00,meteohub,2013-03-06 05:30:00,
2013-03-06 00:35:00,61.0,55.4,30.09,WNW,285,0.0,3.0,82,0.00,,,0.00,meteohub,2013-03-06 05:35:00,
2013-03-06 00:40:00,60.6,55.4,30.09,WNW,285,0.0,2.0,83,0.00,,,0.00,meteohub,2013-03-06 05:40:00,
2013-03-06 00:45:00,60.4,55.2,30.09,WNW,285,0.0,0.0,83,0.00,,,0.00,meteohub,2013-03-06 05:45:00,
2013-03-06 00:50:00,60.3,55.4,30.09,WNW,285,0.0,0.0,84,0.00,,,0.00,meteohub,2013-03-06 05:50:00,
2013-03-06 00:55:00,60.1,55.2,30.09,WNW,285,0.0,0.0,84,0.00,,,0.00,meteohub,2013-03-06 05:55:00,
2013-03-06 01:00:00,59.7,55.2,30.08,WNW,285,0.0,0.0,85,0.00,,,0.00,meteohub,2013-03-06 06:00:00,
2013-03-06 01:06:00,59.5,55.4,30.08,West,264,0.0,1.0,86,0.00,,,0.00,meteohub,2013-03-06 06:06:00,
2013-03-06 01:11:00,59.5,55.4,30.08,West,264,0.0,1.0,86,0.00,,,0.00,meteohub,2013-03-06 06:11:00,
2013-03-06 01:16:00,59.4,55.2,30.08,West,264,0.0,1.0,86,0.00,,,0.00,meteohub,2013-03-06 06:16:00,
2013-03-06 01:21:00,59.2,55.4,30.08,WSW,249,0.0,1.0,87,0.00,,,0.00,meteohub,2013-03-06 06:21:00,
2013-03-06 01:26:00,59.2,55.4,30.08,WSW,248,0.0,1.0,87,0.00,,,0.00,meteohub,2013-03-06 06:26:00,
2013-03-06 01:31:00,59.0,55.2,30.08,WSW,248,0.0,1.0,87,0.00,,,0.00,meteohub,2013-03-06 06:31:00,
2013-03-06 01:36:00,58.8,55.0,30.07,WSW,248,0.0,1.0,87,0.00,,,0.00,meteohub,2013-03-06 06:36:00,
2013-03-06 01:41:00,58.8,55.2,30.07,WSW,238,0.0,2.0,88,0.00,,,0.00,meteohub,2013-03-06 06:41:00,
2013-03-06 01:46:00,58.8,55.2,30.06,WSW,246,0.0,2.0,88,0.00,,,0.00,meteohub,2013-03-06 06:46:00,
2013-03-06 01:51:00,58.6,55.0,30.06,WSW,245,0.0,2.0,88,0.00,,,0.00,meteohub,2013-03-06 06:51:00,
2013-03-06 01:56:00,58.6,55.4,30.06,WSW,238,0.0,0.0,89,0.00,,,0.00,meteohub,2013-03-06 06:56:00,
2013-03-06 02:01:00,58.6,55.4,30.05,SW,232,0.0,2.0,89,0.00,,,0.00,meteohub,2013-03-06 07:01:00,
2013-03-06 02:06:00,58.6,55.4,30.05,WSW,241,0.0,2.0,89,0.00,,,0.00,meteohub,2013-03-06 07:06:00,
2013-03-06 02:11:00,58.5,55.2,30.05,West,279,0.0,2.0,89,0.00,,,0.00,meteohub,2013-03-06 07:11:00,
2013-03-06 02:16:00,58.5,55.2,30.05,West,263,0.0,2.0,89,0.00,,,0.00,meteohub,2013-03-06 07:16:00,
2013-03-06 02:21:00,58.5,55.6,30.05,SW,222,0.0,2.0,90,0.00,,,0.00,meteohub,2013-03-06 07:21:00,
2013-03-06 02:26:00,58.5,55.6,30.04,West,267,0.0,2.0,90,0.00,,,0.00,meteohub,2013-03-06 07:26:00,
2013-03-06 02:31:00,58.5,55.6,30.04,WSW,242,0.0,3.0,90,0.00,,,0.00,meteohub,2013-03-06 07:31:00,
2013-03-06 02:36:00,58.6,55.8,30.04,WSW,250,0.0,3.0,90,0.00,,,0.00,meteohub,2013-03-06 07:36:00,
2013-03-06 02:41:00,58.6,55.8,30.04,WSW,256,0.0,3.0,90,0.00,,,0.00,meteohub,2013-03-06 07:41:00,
2013-03-06 02:46:00,58.6,55.8,30.03,WSW,238,0.0,2.0,90,0.00,,,0.00,meteohub,2013-03-06 07:46:00,
2013-03-06 02:51:00,58.5,55.8,30.03,SW,223,1.0,2.0,91,0.00,,,0.00,meteohub,2013-03-06 07:51:00,
2013-03-06 02:56:00,58.6,55.9,30.03,WSW,238,1.0,4.0,91,0.00,,,0.00,meteohub,2013-03-06 07:56:00,
2013-03-06 03:01:00,58.5,55.8,30.03,WSW,254,0.0,4.0,91,0.00,,,0.00,meteohub,2013-03-06 08:01:00,
2013-03-06 03:06:00,58.5,55.8,30.02,West,270,0.0,4.0,91,0.00,,,0.00,meteohub,2013-03-06 08:06:00,
2013-03-06 03:11:00,58.5,55.8,30.02,WSW,252,0.0,3.0,91,0.00,,,0.00,meteohub,2013-03-06 08:11:00,
2013-03-06 03:16:00,58.5,55.8,30.02,West,261,0.0,3.0,91,0.00,,,0.00,meteohub,2013-03-06 08:16:00,
2013-03-06 03:21:00,58.3,55.6,30.02,WSW,258,0.0,3.0,91,0.00,,,0.00,meteohub,2013-03-06 08:21:00,
2013-03-06 03:26:00,58.3,55.6,30.02,WSW,258,0.0,2.0,91,0.00,,,0.00,meteohub,2013-03-06 08:26:00,
2013-03-06 03:31:00,58.1,55.4,30.02,SW,234,0.0,2.0,91,0.00,,,0.00,meteohub,2013-03-06 08:31:00,
2013-03-06 03:36:00,57.9,55.2,30.02,SW,234,0.0,1.0,91,0.00,,,0.00,meteohub,2013-03-06 08:36:00,
2013-03-06 03:41:00,57.7,55.4,30.02,WSW,242,0.0,1.0,92,0.00,,,0.00,meteohub,2013-03-06 08:41:00,
2013-03-06 03:46:00,57.7,55.4,30.02,WSW,257,0.0,2.0,92,0.00,,,0.00,meteohub,2013-03-06 08:46:00,
2013-03-06 03:51:00,57.7,55.4,30.02,WSW,238,0.0,2.0,92,0.00,,,0.00,meteohub,2013-03-06 08:51:00,
2013-03-06 03:56:00,57.7,55.4,30.02,WSW,238,0.0,2.0,92,0.00,,,0.00,meteohub,2013-03-06 08:56:00,
2013-03-06 04:01:00,57.6,55.2,30.02,WSW,238,0.0,2.0,92,0.00,,,0.00,meteohub,2013-03-06 09:01:00,
2013-03-06 04:07:00,57.4,55.0,30.03,WSW,238,0.0,1.0,92,0.00,,,0.00,meteohub,2013-03-06 09:07:00,
2013-03-06 04:12:00,57.2,55.2,30.03,WSW,238,0.0,0.0,93,0.00,,,0.00,meteohub,2013-03-06 09:12:00,
2013-03-06 04:17:00,57.0,54.7,30.03,WSW,238,0.0,0.0,92,0.00,,,0.00,meteohub,2013-03-06 09:17:00,
2013-03-06 04:22:00,56.7,54.3,30.03,WSW,238,0.0,0.0,92,0.00,,,0.00,meteohub,2013-03-06 09:22:00,
2013-03-06 04:27:00,56.5,54.5,30.03,WSW,238,0.0,0.0,93,0.00,,,0.00,meteohub,2013-03-06 09:27:00,
2013-03-06 04:32:00,56.5,54.5,30.02,WSW,238,0.0,0.0,93,0.00,,,0.00,meteohub,2013-03-06 09:32:00,
2013-03-06 04:37:00,56.5,54.5,30.03,WSW,238,0.0,0.0,93,0.00,,,0.00,meteohub,2013-03-06 09:37:00,
2013-03-06 04:42:00,56.3,54.3,30.03,WSW,238,0.0,0.0,93,0.00,,,0.00,meteohub,2013-03-06 09:42:00,
2013-03-06 04:47:00,56.1,54.5,30.03,WSW,238,0.0,0.0,94,0.00,,,0.00,meteohub,2013-03-06 09:47:00,
2013-03-06 04:52:00,55.9,54.3,30.03,WSW,238,0.0,0.0,94,0.00,,,0.00,meteohub,2013-03-06 09:52:00,
2013-03-06 04:57:00,55.9,54.3,30.03,WSW,238,0.0,1.0,94,0.00,,,0.00,meteohub,2013-03-06 09:57:00,
2013-03-06 05:02:00,55.9,54.3,30.03,WSW,238,0.0,1.0,94,0.00,,,0.00,meteohub,2013-03-06 10:02:00,
2013-03-06 05:07:00,56.1,54.5,30.04,WSW,238,0.0,1.0,94,0.00,,,0.00,meteohub,2013-03-06 10:07:00,
2013-03-06 05:12:00,56.1,54.7,30.04,West,273,0.0,1.0,95,0.00,,,0.00,meteohub,2013-03-06 10:12:00,
2013-03-06 05:17:00,56.3,54.9,30.04,West,266,0.0,2.0,95,0.00,,,0.00,meteohub,2013-03-06 10:17:00,
2013-03-06 05:22:00,56.1,54.7,30.04,WSW,256,1.0,2.0,95,0.00,,,0.00,meteohub,2013-03-06 10:22:00,
2013-03-06 05:27:00,56.3,54.9,30.04,West,268,1.0,2.0,95,0.00,,,0.00,meteohub,2013-03-06 10:27:00,
2013-03-06 05:32:00,56.5,55.0,30.04,West,271,0.0,3.0,95,0.00,,,0.00,meteohub,2013-03-06 10:32:00,
2013-03-06 05:37:00,56.5,55.0,30.04,West,265,0.0,3.0,95,0.00,,,0.00,meteohub,2013-03-06 10:37:00,
2013-03-06 05:42:00,56.7,55.2,30.04,West,278,0.0,5.0,95,0.00,,,0.00,meteohub,2013-03-06 10:42:00,
2013-03-06 05:47:00,56.7,55.2,30.04,West,276,1.0,5.0,95,0.00,,,0.00,meteohub,2013-03-06 10:47:00,
2013-03-06 05:52:00,56.8,55.2,30.05,West,269,1.0,5.0,94,0.00,,,0.00,meteohub,2013-03-06 10:52:00,
2013-03-06 05:57:00,56.8,55.2,30.04,West,267,1.0,4.0,94,0.00,,,0.00,meteohub,2013-03-06 10:57:00,
2013-03-06 06:02:00,57.0,55.2,30.04,West,273,0.0,4.0,94,0.00,,,0.00,meteohub,2013-03-06 11:02:00,
2013-03-06 06:07:00,57.0,55.2,30.04,WSW,241,0.0,4.0,94,0.00,,,0.00,meteohub,2013-03-06 11:07:00,
2013-03-06 06:12:00,57.0,55.2,30.04,SW,221,0.0,4.0,94,0.00,,,0.00,meteohub,2013-03-06 11:12:00,
2013-03-06 06:17:00,57.2,55.4,30.04,SW,221,2.0,3.0,94,0.00,,,0.00,meteohub,2013-03-06 11:17:00,
2013-03-06 06:22:00,57.4,55.6,30.04,WSW,249,0.0,3.0,94,0.00,,,0.00,meteohub,2013-03-06 11:22:00,
2013-03-06 06:27:00,57.4,55.6,30.04,SW,223,2.0,4.0,94,0.00,,,0.00,meteohub,2013-03-06 11:27:00,
2013-03-06 06:32:00,57.6,55.8,30.04,WSW,250,0.0,4.0,94,0.00,,,0.00,meteohub,2013-03-06 11:32:00,
2013-03-06 06:37:00,57.6,55.8,30.05,West,267,0.0,4.0,94,0.00,,,0.00,meteohub,2013-03-06 11:37:00,
2013-03-06 06:42:00,57.6,55.8,30.05,WSW,250,0.0,3.0,94,0.00,,,0.00,meteohub,2013-03-06 11:42:00,
2013-03-06 06:47:00,57.6,55.8,30.05,West,263,0.0,3.0,94,0.00,,,0.00,meteohub,2013-03-06 11:47:00,
2013-03-06 06:52:00,57.7,55.9,30.05,SW,215,0.0,4.0,94,0.00,,,0.00,meteohub,2013-03-06 11:52:00,
2013-03-06 06:57:00,57.7,55.9,30.04,SW,226,0.0,4.0,94,0.00,,,0.00,meteohub,2013-03-06 11:57:00,
2013-03-06 07:02:00,57.9,56.1,30.04,SW,230,0.0,4.0,94,0.00,,,0.00,meteohub,2013-03-06 12:02:00,
2013-03-06 07:07:00,58.3,56.5,30.05,SW,222,0.0,4.0,94,0.00,,,0.00,meteohub,2013-03-06 12:07:00,
2013-03-06 07:12:00,58.5,56.7,30.05,WSW,241,1.0,4.0,94,0.00,,,0.00,meteohub,2013-03-06 12:12:00,
2013-03-06 07:17:00,58.8,57.0,30.05,SSW,209,4.0,4.0,94,0.00,,,0.00,meteohub,2013-03-06 12:17:00,
2013-03-06 07:22:00,59.2,57.4,30.05,SW,219,5.0,5.0,94,0.00,,,0.00,meteohub,2013-03-06 12:22:00,
2013-03-06 07:27:00,59.5,57.6,30.06,SW,223,1.0,5.0,93,0.00,,,0.00,meteohub,2013-03-06 12:27:00,
2013-03-06 07:32:00,60.1,58.1,30.06,SW,232,2.0,7.0,93,0.00,,,0.00,meteohub,2013-03-06 12:32:00,
2013-03-06 07:37:00,60.4,58.1,30.06,West,269,0.0,10.0,92,0.00,,,0.00,meteohub,2013-03-06 12:37:00,
2013-03-06 07:42:00,61.0,58.3,30.06,West,270,2.0,10.0,91,0.00,,,0.00,meteohub,2013-03-06 12:42:00,
2013-03-06 07:47:00,61.3,58.5,30.06,SW,229,0.0,10.0,90,0.00,,,0.00,meteohub,2013-03-06 12:47:00,
2013-03-06 07:52:00,61.5,58.3,30.06,WNW,287,1.0,6.0,89,0.00,,,0.00,meteohub,2013-03-06 12:52:00,
2013-03-06 07:57:00,62.2,58.6,30.06,SW,220,2.0,9.0,88,0.00,,,0.00,meteohub,2013-03-06 12:57:00,
2013-03-06 08:02:00,62.4,58.5,30.07,West,281,0.0,9.0,87,0.00,,,0.00,meteohub,2013-03-06 13:02:00,
2013-03-06 08:07:00,63.0,59.0,30.07,West,265,3.0,9.0,87,0.00,,,0.00,meteohub,2013-03-06 13:07:00,
2013-03-06 08:12:00,63.5,59.2,30.07,WSW,257,0.0,9.0,86,0.00,,,0.00,meteohub,2013-03-06 13:12:00,
2013-03-06 08:17:00,64.2,59.5,30.07,WSW,248,2.0,7.0,85,0.00,,,0.00,meteohub,2013-03-06 13:17:00,
2013-03-06 08:22:00,64.9,59.7,30.06,West,271,0.0,7.0,83,0.00,,,0.00,meteohub,2013-03-06 13:22:00,
2013-03-06 08:27:00,65.7,60.1,30.06,NNW,337,4.0,9.0,82,0.00,,,0.00,meteohub,2013-03-06 13:27:00,
2013-03-06 08:32:00,66.0,59.7,30.06,SW,234,2.0,9.0,80,0.00,,,0.00,meteohub,2013-03-06 13:32:00,
2013-03-06 08:37:00,66.4,59.7,30.06,NW,314,5.0,12.0,79,0.00,,,0.00,meteohub,2013-03-06 13:37:00,
2013-03-06 08:42:00,66.7,60.1,30.06,SW,229,1.0,12.0,79,0.00,,,0.00,meteohub,2013-03-06 13:42:00,
2013-03-06 08:48:00,67.5,60.1,30.06,WSW,242,4.0,12.0,77,0.00,,,0.00,meteohub,2013-03-06 13:48:00,
2013-03-06 08:53:00,67.5,59.5,30.06,West,261,5.0,11.0,76,0.00,,,0.00,meteohub,2013-03-06 13:53:00,
2013-03-06 08:58:00,67.5,60.1,30.06,SW,216,0.0,12.0,77,0.00,,,0.00,meteohub,2013-03-06 13:58:00,
2013-03-06 09:03:00,67.5,59.5,30.06,West,263,3.0,13.0,76,0.00,,,0.00,meteohub,2013-03-06 14:03:00,
2013-03-06 09:08:00,67.8,59.5,30.06,SSW,211,3.0,13.0,75,0.00,,,0.00,meteohub,2013-03-06 14:08:00,
2013-03-06 09:13:00,68.4,60.1,30.06,WNW,283,2.0,13.0,75,0.00,,,0.00,meteohub,2013-03-06 14:13:00,
2013-03-06 09:18:00,69.3,60.6,30.06,WSW,255,1.0,11.0,74,0.00,,,0.00,meteohub,2013-03-06 14:18:00,
2013-03-06 09:23:00,69.6,60.3,30.06,SSW,211,3.0,12.0,72,0.00,,,0.00,meteohub,2013-03-06 14:23:00,
2013-03-06 09:28:00,69.8,59.9,30.06,West,267,4.0,13.0,71,0.00,,,0.00,meteohub,2013-03-06 14:28:00,
2013-03-06 09:33:00,69.6,59.7,30.06,West,265,2.0,13.0,71,0.00,,,0.00,meteohub,2013-03-06 14:33:00,
2013-03-06 09:38:00,69.4,59.2,30.06,WNW,297,2.0,13.0,70,0.00,,,0.00,meteohub,2013-03-06 14:38:00,
2013-03-06 09:43:00,69.6,59.7,30.05,WSW,240,10.0,12.0,71,0.00,,,0.00,meteohub,2013-03-06 14:43:00,
2013-03-06 09:48:00,70.3,60.4,30.05,South,171,3.0,11.0,71,0.00,,,0.00,meteohub,2013-03-06 14:48:00,
2013-03-06 09:53:00,71.1,59.9,30.06,WNW,291,4.0,10.0,68,0.00,,,0.00,meteohub,2013-03-06 14:53:00,
2013-03-06 09:58:00,71.2,59.7,30.05,West,259,1.0,10.0,67,0.00,,,0.00,meteohub,2013-03-06 14:58:00,
2013-03-06 10:03:00,71.2,60.1,30.05,WNW,282,1.0,10.0,68,0.00,,,0.00,meteohub,2013-03-06 15:03:00,
2013-03-06 10:08:00,71.1,59.9,30.05,WSW,255,7.0,10.0,68,0.00,,,0.00,meteohub,2013-03-06 15:08:00,
2013-03-06 10:13:00,71.1,59.9,30.05,West,262,8.0,10.0,68,0.00,,,0.00,meteohub,2013-03-06 15:13:00,
2013-03-06 10:18:00,70.9,59.7,30.06,South,190,7.0,14.0,68,0.00,,,0.00,meteohub,2013-03-06 15:18:00,
2013-03-06 10:23:00,70.7,60.1,30.06,SSW,205,2.0,14.0,69,0.00,,,0.00,meteohub,2013-03-06 15:23:00,
2013-03-06 10:28:00,70.7,60.4,30.06,West,278,6.0,14.0,70,0.00,,,0.00,meteohub,2013-03-06 15:28:00,
2013-03-06 10:33:00,70.7,61.2,30.06,West,266,4.0,12.0,72,0.00,,,0.00,meteohub,2013-03-06 15:33:00,
2013-03-06 10:38:00,70.3,60.8,30.06,SW,234,4.0,12.0,72,0.00,,,0.00,meteohub,2013-03-06 15:38:00,
2013-03-06 10:43:00,70.0,61.7,30.06,West,271,0.0,10.0,75,0.00,,,0.00,meteohub,2013-03-06 15:43:00,
2013-03-06 10:48:00,69.3,61.7,30.06,NW,308,1.0,11.0,77,0.00,,,0.00,meteohub,2013-03-06 15:48:00,
2013-03-06 10:53:00,68.7,62.2,30.06,NW,308,2.0,11.0,80,0.00,,,0.00,meteohub,2013-03-06 15:53:00,
2013-03-06 10:58:00,68.5,61.7,30.06,West,260,3.0,11.0,79,0.00,,,0.00,meteohub,2013-03-06 15:58:00,
2013-03-06 11:03:00,68.5,61.7,30.06,West,266,2.0,9.0,79,0.00,,,0.00,meteohub,2013-03-06 16:03:00,
2013-03-06 11:08:00,68.9,61.7,30.06,WNW,290,2.0,9.0,78,0.00,,,0.00,meteohub,2013-03-06 16:08:00,
2013-03-06 11:13:00,69.3,62.1,30.06,West,274,3.0,9.0,78,0.00,,,0.00,meteohub,2013-03-06 16:13:00,
2013-03-06 11:18:00,69.6,62.1,30.06,West,274,1.0,9.0,77,0.00,,,0.00,meteohub,2013-03-06 16:18:00,
2013-03-06 11:23:00,70.2,62.2,30.06,NW,320,2.0,9.0,76,0.00,,,0.00,meteohub,2013-03-06 16:23:00,
2013-03-06 11:28:00,70.3,61.7,30.05,West,263,2.0,9.0,74,0.00,,,0.00,meteohub,2013-03-06 16:28:00,
2013-03-06 11:33:00,70.5,61.5,30.05,West,265,3.0,8.0,73,0.00,,,0.00,meteohub,2013-03-06 16:33:00,
2013-03-06 11:39:00,70.5,61.0,30.05,West,273,6.0,9.0,72,0.00,,,0.00,meteohub,2013-03-06 16:39:00,
2013-03-06 11:44:00,70.5,61.5,30.05,NW,305,6.0,11.0,73,0.00,,,0.00,meteohub,2013-03-06 16:44:00,
2013-03-06 11:49:00,70.3,61.3,30.05,WNW,302,0.0,11.0,73,0.00,,,0.00,meteohub,2013-03-06 16:49:00,
2013-03-06 11:54:00,70.2,61.9,30.05,WNW,298,4.0,11.0,75,0.00,,,0.00,meteohub,2013-03-06 16:54:00,
2013-03-06 11:59:00,69.4,62.2,30.05,WNW,294,2.0,11.0,78,0.00,,,0.00,meteohub,2013-03-06 16:59:00,
2013-03-06 12:04:00,68.7,62.6,30.05,NNW,337,2.0,11.0,81,0.00,,,0.00,meteohub,2013-03-06 17:04:00,
2013-03-06 12:09:00,68.7,63.0,30.05,NNE,20,3.0,11.0,82,0.00,,,0.00,meteohub,2013-03-06 17:09:00,
2013-03-06 12:14:00,68.9,63.1,30.05,NNW,333,1.0,11.0,82,0.00,,,0.00,meteohub,2013-03-06 17:14:00,
2013-03-06 12:19:00,68.7,63.0,30.05,NNW,347,1.0,10.0,82,0.00,,,0.00,meteohub,2013-03-06 17:19:00,
2013-03-06 12:24:00,68.7,63.0,30.04,NW,311,3.0,8.0,82,0.00,,,0.00,meteohub,2013-03-06 17:24:00,
2013-03-06 12:29:00,69.1,63.0,30.04,NNW,329,4.0,8.0,81,0.00,,,0.00,meteohub,2013-03-06 17:29:00,
2013-03-06 12:34:00,69.3,63.1,30.04,NW,324,3.0,9.0,81,0.00,,,0.00,meteohub,2013-03-06 17:34:00,
2013-03-06 12:39:00,69.4,63.0,30.04,West,281,7.0,9.0,80,0.00,,,0.00,meteohub,2013-03-06 17:39:00,
2013-03-06 12:44:00,69.3,62.4,30.04,WNW,286,2.0,13.0,79,0.00,,,0.00,meteohub,2013-03-06 17:44:00,
2013-03-06 12:49:00,69.4,62.6,30.03,WNW,300,5.0,13.0,79,0.00,,,0.00,meteohub,2013-03-06 17:49:00,
2013-03-06 12:54:00,69.8,63.0,30.03,NW,326,6.0,13.0,79,0.00,,,0.00,meteohub,2013-03-06 17:54:00,
2013-03-06 12:59:00,70.5,63.3,30.03,NW,306,2.0,12.0,78,0.00,,,0.00,meteohub,2013-03-06 17:59:00,
2013-03-06 13:04:00,71.8,63.5,30.02,WSW,240,7.0,12.0,75,0.00,,,0.00,meteohub,2013-03-06 18:04:00,
2013-03-06 13:09:00,72.7,61.9,30.02,NW,311,7.0,9.0,69,0.00,,,0.00,meteohub,2013-03-06 18:09:00,
2013-03-06 13:14:00,73.0,61.9,30.01,WNW,298,4.0,10.0,68,0.00,,,0.00,meteohub,2013-03-06 18:14:00,
2013-03-06 13:19:00,73.8,62.1,30.01,North,350,4.0,11.0,67,0.00,,,0.00,meteohub,2013-03-06 18:19:00,
2013-03-06 13:24:00,74.1,61.2,30.00,NW,311,2.0,11.0,64,0.00,,,0.00,meteohub,2013-03-06 18:24:00,
2013-03-06 13:29:00,74.7,62.1,30.00,WNW,294,3.0,13.0,65,0.00,,,0.00,meteohub,2013-03-06 18:29:00,
2013-03-06 13:34:00,75.4,61.5,30.00,WNW,282,4.0,13.0,62,0.00,,,0.00,meteohub,2013-03-06 18:34:00,
2013-03-06 13:39:00,75.6,61.7,30.00,North,355,4.0,13.0,62,0.00,,,0.00,meteohub,2013-03-06 18:39:00,
2013-03-06 13:44:00,75.4,61.0,29.99,NW,310,5.0,10.0,61,0.00,,,0.00,meteohub,2013-03-06 18:44:00,
2013-03-06 13:49:00,75.0,60.6,29.99,West,271,9.0,12.0,61,0.00,,,0.00,meteohub,2013-03-06 18:49:00,
2013-03-06 13:54:00,75.4,61.5,29.98,NNW,348,1.0,12.0,62,0.00,,,0.00,meteohub,2013-03-06 18:54:00,
2013-03-06 13:59:00,75.9,61.9,29.98,NNW,328,1.0,12.0,62,0.00,,,0.00,meteohub,2013-03-06 18:59:00,
2013-03-06 14:04:00,76.5,60.6,29.97,SW,230,3.0,12.0,58,0.00,,,0.00,meteohub,2013-03-06 19:04:00,
2013-03-06 14:09:00,76.6,60.3,29.97,NW,321,9.0,11.0,57,0.00,,,0.00,meteohub,2013-03-06 19:09:00,
2013-03-06 14:14:00,76.8,61.0,29.97,WNW,284,4.0,12.0,58,0.00,,,0.00,meteohub,2013-03-06 19:14:00,
2013-03-06 14:19:00,77.0,60.1,29.97,WNW,283,1.0,12.0,56,0.00,,,0.00,meteohub,2013-03-06 19:19:00,
2013-03-06 14:24:00,77.0,59.5,29.97,NW,316,8.0,13.0,55,0.00,,,0.00,meteohub,2013-03-06 19:24:00,
2013-03-06 14:29:00,76.8,59.0,29.97,NW,304,13.0,13.0,54,0.00,,,0.00,meteohub,2013-03-06 19:29:00,
2013-03-06 14:34:00,77.2,58.6,29.97,WNW,286,11.0,13.0,53,0.00,,,0.00,meteohub,2013-03-06 19:34:00,
2013-03-06 14:39:00,76.6,56.1,29.96,West,280,3.0,15.0,49,0.00,,,0.00,meteohub,2013-03-06 19:39:00,
2013-03-06 14:44:00,77.5,55.8,29.96,North,350,5.0,16.0,47,0.00,,,0.00,meteohub,2013-03-06 19:44:00,
2013-03-06 14:49:00,77.7,55.2,29.96,NNW,338,5.0,16.0,46,0.00,,,0.00,meteohub,2013-03-06 19:49:00,
2013-03-06 14:54:00,78.1,55.0,29.96,NW,304,2.0,16.0,45,0.00,,,0.00,meteohub,2013-03-06 19:54:00,
2013-03-06 14:59:00,78.1,53.8,29.96,NNW,329,1.0,13.0,43,0.00,,,0.00,meteohub,2013-03-06 19:59:00,
2013-03-06 15:04:00,77.7,53.4,29.96,NW,305,4.0,13.0,43,0.00,,,0.00,meteohub,2013-03-06 20:04:00,
2013-03-06 15:09:00,77.7,52.9,29.95,NW,325,3.0,13.0,42,0.00,,,0.00,meteohub,2013-03-06 20:09:00,
2013-03-06 15:14:00,77.9,52.9,29.95,NW,325,4.0,13.0,42,0.00,,,0.00,meteohub,2013-03-06 20:14:00,
2013-03-06 15:19:00,77.7,52.9,29.95,NNW,342,2.0,13.0,42,0.00,,,0.00,meteohub,2013-03-06 20:19:00,
2013-03-06 15:24:00,77.7,52.2,29.95,WNW,286,3.0,12.0,41,0.00,,,0.00,meteohub,2013-03-06 20:24:00,
2013-03-06 15:29:00,77.7,52.2,29.95,North,355,2.0,12.0,41,0.00,,,0.00,meteohub,2013-03-06 20:29:00,
2013-03-06 15:34:00,77.4,51.8,29.95,WNW,283,3.0,13.0,41,0.00,,,0.00,meteohub,2013-03-06 20:34:00,
2013-03-06 15:39:00,77.4,51.8,29.95,SSW,205,11.0,18.0,41,0.00,,,0.00,meteohub,2013-03-06 20:39:00,
2013-03-06 15:45:00,77.4,51.8,29.94,West,262,8.0,18.0,41,0.00,,,0.00,meteohub,2013-03-06 20:45:00,
2013-03-06 15:49:00,77.4,51.1,29.94,WNW,292,1.0,18.0,40,0.00,,,0.00,meteohub,2013-03-06 20:49:00,
2013-03-06 15:54:00,77.4,51.1,29.94,North,0,4.0,16.0,40,0.00,,,0.00,meteohub,2013-03-06 20:54:00,
2013-03-06 16:00:00,77.4,50.5,29.95,SSW,198,6.0,16.0,39,0.00,,,0.00,meteohub,2013-03-06 21:00:00,
2013-03-06 16:05:00,77.0,49.5,29.95,NNW,328,6.0,16.0,38,0.00,,,0.00,meteohub,2013-03-06 21:05:00,
2013-03-06 16:10:00,77.0,48.7,29.94,North,355,6.0,15.0,37,0.00,,,0.00,meteohub,2013-03-06 21:10:00,
2013-03-06 16:15:00,76.8,47.8,29.94,West,261,7.0,17.0,36,0.00,,,0.00,meteohub,2013-03-06 21:15:00,
2013-03-06 16:20:00,76.8,47.8,29.95,West,279,5.0,17.0,36,0.00,,,0.00,meteohub,2013-03-06 21:20:00,
2013-03-06 16:25:00,76.8,47.8,29.95,West,265,6.0,17.0,36,0.00,,,0.00,meteohub,2013-03-06 21:25:00,
2013-03-06 16:30:00,76.6,46.9,29.95,NW,313,1.0,16.0,35,0.00,,,0.00,meteohub,2013-03-06 21:30:00,
2013-03-06 16:35:00,76.5,46.8,29.96,WNW,292,6.0,17.0,35,0.00,,,0.00,meteohub,2013-03-06 21:35:00,
2013-03-06 16:40:00,76.3,46.6,29.95,NW,326,3.0,18.0,35,0.00,,,0.00,meteohub,2013-03-06 21:40:00,
2013-03-06 16:45:00,76.3,46.6,29.95,NW,307,5.0,18.0,35,0.00,,,0.00,meteohub,2013-03-06 21:45:00,
2013-03-06 16:50:00,75.9,45.5,29.96,NNW,336,7.0,18.0,34,0.00,,,0.00,meteohub,2013-03-06 21:50:00,
2013-03-06 16:55:00,75.6,44.4,29.96,NNW,340,3.0,13.0,33,0.00,,,0.00,meteohub,2013-03-06 21:55:00,
2013-03-06 17:00:00,75.0,42.3,29.96,NW,314,3.0,13.0,31,0.00,,,0.00,meteohub,2013-03-06 22:00:00,
2013-03-06 17:05:00,74.5,41.0,29.96,NW,317,2.0,16.0,30,0.00,,,0.00,meteohub,2013-03-06 22:05:00,
2013-03-06 17:10:00,73.8,40.5,29.96,NW,308,3.0,16.0,30,0.00,,,0.00,meteohub,2013-03-06 22:10:00,
2013-03-06 17:15:00,73.2,39.0,29.97,NW,326,5.0,16.0,29,0.00,,,0.00,meteohub,2013-03-06 22:15:00,
2013-03-06 17:20:00,72.9,39.6,29.97,WNW,295,8.0,11.0,30,0.00,,,0.00,meteohub,2013-03-06 22:20:00,
2013-03-06 17:25:00,72.3,39.2,29.97,NNW,347,4.0,15.0,30,0.00,,,0.00,meteohub,2013-03-06 22:25:00,
2013-03-06 17:30:00,72.0,39.7,29.97,West,267,7.0,15.0,31,0.00,,,0.00,meteohub,2013-03-06 22:30:00,
2013-03-06 17:35:00,71.6,39.4,29.97,NNW,341,5.0,15.0,31,0.00,,,0.00,meteohub,2013-03-06 22:35:00,
2013-03-06 17:40:00,71.2,40.6,29.97,NW,311,1.0,11.0,33,0.00,,,0.00,meteohub,2013-03-06 22:40:00,
2013-03-06 17:45:00,71.1,40.5,29.98,NNW,328,1.0,11.0,33,0.00,,,0.00,meteohub,2013-03-06 22:45:00,
2013-03-06 17:50:00,70.5,40.8,29.98,North,355,2.0,12.0,34,0.00,,,0.00,meteohub,2013-03-06 22:50:00,
2013-03-06 17:55:00,70.0,41.0,29.98,WNW,295,5.0,12.0,35,0.00,,,0.00,meteohub,2013-03-06 22:55:00,
2013-03-06 18:00:00,69.4,40.6,29.98,North,5,6.0,12.0,35,0.00,,,0.00,meteohub,2013-03-06 23:00:00,
2013-03-06 18:05:00,69.1,40.3,29.99,NNW,342,1.0,9.0,35,0.00,,,0.00,meteohub,2013-03-06 23:05:00,
2013-03-06 18:10:00,68.5,39.0,29.99,NNW,333,0.0,9.0,34,0.00,,,0.00,meteohub,2013-03-06 23:10:00,
2013-03-06 18:15:00,68.0,38.7,29.99,NW,319,1.0,9.0,34,0.00,,,0.00,meteohub,2013-03-06 23:15:00,
2013-03-06 18:20:00,67.6,37.6,29.99,North,11,5.0,12.0,33,0.00,,,0.00,meteohub,2013-03-06 23:20:00,
2013-03-06 18:25:00,67.3,37.2,30.00,NNW,343,2.0,12.0,33,0.00,,,0.00,meteohub,2013-03-06 23:25:00,
2013-03-06 18:30:00,66.7,36.7,30.00,North,355,1.0,12.0,33,0.00,,,0.00,meteohub,2013-03-06 23:30:00,
2013-03-06 18:35:00,66.6,36.5,30.00,NNE,15,1.0,11.0,33,0.00,,,0.00,meteohub,2013-03-06 23:35:00,
2013-03-06 18:40:00,66.4,37.9,30.00,North,355,1.0,11.0,35,0.00,,,0.00,meteohub,2013-03-06 23:40:00,
2013-03-06 18:45:00,65.8,36.7,30.01,NW,319,4.0,11.0,34,0.00,,,0.00,meteohub,2013-03-06 23:45:00,
2013-03-06 18:50:00,65.7,37.2,30.01,NW,324,3.0,9.0,35,0.00,,,0.00,meteohub,2013-03-06 23:50:00,
2013-03-06 18:55:00,65.5,37.8,30.01,North,349,5.0,8.0,36,0.00,,,0.00,meteohub,2013-03-06 23:55:00,
2013-03-06 19:01:00,64.9,37.4,30.01,NW,314,3.0,8.0,36,0.00,,,0.00,meteohub,2013-03-07 00:01:00,
2013-03-06 19:05:00,64.8,37.2,30.01,NNW,336,5.0,8.0,36,0.00,,,0.00,meteohub,2013-03-07 00:05:00,
2013-03-06 19:10:00,64.6,37.8,30.01,NW,314,4.0,8.0,37,0.00,,,0.00,meteohub,2013-03-07 00:10:00,
2013-03-06 19:16:00,64.4,37.6,30.02,NW,314,3.0,9.0,37,0.00,,,0.00,meteohub,2013-03-07 00:16:00,
2013-03-06 19:21:00,64.0,37.9,30.02,WNW,294,1.0,9.0,38,0.00,,,0.00,meteohub,2013-03-07 00:21:00,
2013-03-06 19:26:00,63.9,39.0,30.02,WNW,303,2.0,9.0,40,0.00,,,0.00,meteohub,2013-03-07 00:26:00,
2013-03-06 19:31:00,63.7,38.3,30.02,WNW,294,0.0,8.0,39,0.00,,,0.00,meteohub,2013-03-07 00:31:00,
2013-03-06 19:36:00,63.3,36.7,30.02,NW,306,4.0,11.0,37,0.00,,,0.00,meteohub,2013-03-07 00:36:00,
2013-03-06 19:41:00,63.1,36.5,30.03,West,266,5.0,11.0,37,0.00,,,0.00,meteohub,2013-03-07 00:41:00,
2013-03-06 19:46:00,63.0,35.6,30.03,WNW,296,2.0,11.0,36,0.00,,,0.00,meteohub,2013-03-07 00:46:00,
2013-03-06 19:51:00,62.8,35.4,30.03,WNW,301,3.0,9.0,36,0.00,,,0.00,meteohub,2013-03-07 00:51:00,
2013-03-06 19:56:00,62.2,34.2,30.04,NW,318,3.0,11.0,35,0.00,,,0.00,meteohub,2013-03-07 00:56:00,
2013-03-06 20:01:00,62.1,34.9,30.04,NNW,342,2.0,11.0,36,0.00,,,0.00,meteohub,2013-03-07 01:01:00,
2013-03-06 20:06:00,61.7,33.8,30.04,NNW,342,0.0,11.0,35,0.00,,,0.00,meteohub,2013-03-07 01:06:00,
2013-03-06 20:11:00,61.5,32.9,30.04,West,275,2.0,14.0,34,0.00,,,0.00,meteohub,2013-03-07 01:11:00,
2013-03-06 20:16:00,61.3,34.2,30.04,WNW,290,2.0,14.0,36,0.00,,,0.00,meteohub,2013-03-07 01:16:00,
2013-03-06 20:21:00,61.0,33.8,30.04,NNW,346,3.0,14.0,36,0.00,,,0.00,meteohub,2013-03-07 01:21:00,
2013-03-06 20:26:00,60.8,33.6,30.04,West,269,6.0,7.0,36,0.00,,,0.00,meteohub,2013-03-07 01:26:00,
2013-03-06 20:31:00,60.6,33.4,30.04,NW,315,2.0,10.0,36,0.00,,,0.00,meteohub,2013-03-07 01:31:00,
2013-03-06 20:36:00,60.4,34.0,30.04,NNW,328,1.0,11.0,37,0.00,,,0.00,meteohub,2013-03-07 01:36:00,
2013-03-06 20:41:00,60.3,34.5,30.05,NW,323,5.0,11.0,38,0.00,,,0.00,meteohub,2013-03-07 01:41:00,
2013-03-06 20:46:00,60.1,35.1,30.05,NW,319,1.0,12.0,39,0.00,,,0.00,meteohub,2013-03-07 01:46:00,
2013-03-06 20:51:00,59.7,35.4,30.05,NW,315,0.0,12.0,40,0.00,,,0.00,meteohub,2013-03-07 01:51:00,
2013-03-06 20:56:00,59.4,35.1,30.05,NW,315,0.0,12.0,40,0.00,,,0.00,meteohub,2013-03-07 01:56:00,
2013-03-06 21:01:00,59.2,35.4,30.05,WNW,284,5.0,9.0,41,0.00,,,0.00,meteohub,2013-03-07 02:01:00,
2013-03-06 21:06:00,58.8,35.8,30.05,NNW,342,0.0,7.0,42,0.00,,,0.00,meteohub,2013-03-07 02:06:00,
2013-03-06 21:11:00,58.6,36.1,30.06,WNW,302,2.0,7.0,43,0.00,,,0.00,meteohub,2013-03-07 02:11:00,
2013-03-06 21:16:00,58.5,36.7,30.07,North,0,0.0,10.0,44,0.00,,,0.00,meteohub,2013-03-07 02:16:00,
2013-03-06 21:21:00,58.3,36.5,30.07,NW,319,3.0,10.0,44,0.00,,,0.00,meteohub,2013-03-07 02:21:00,
2013-03-06 21:26:00,58.1,36.9,30.06,NW,312,3.0,13.0,45,0.00,,,0.00,meteohub,2013-03-07 02:26:00,
2013-03-06 21:31:00,57.9,37.2,30.07,NNW,344,4.0,13.0,46,0.00,,,0.00,meteohub,2013-03-07 02:31:00,
2013-03-06 21:36:00,57.7,37.6,30.07,NNW,332,0.0,13.0,47,0.00,,,0.00,meteohub,2013-03-07 02:36:00,
2013-03-06 21:41:00,57.4,37.9,30.07,NW,306,6.0,10.0,48,0.00,,,0.00,meteohub,2013-03-07 02:41:00,
2013-03-06 21:46:00,57.2,37.8,30.07,NW,319,3.0,11.0,48,0.00,,,0.00,meteohub,2013-03-07 02:46:00,
2013-03-06 21:51:00,56.8,37.9,30.08,NW,313,0.0,11.0,49,0.00,,,0.00,meteohub,2013-03-07 02:51:00,
2013-03-06 21:56:00,56.7,38.7,30.08,NW,321,4.0,11.0,51,0.00,,,0.00,meteohub,2013-03-07 02:56:00,
2013-03-06 22:01:00,56.3,38.8,30.08,NNW,338,4.0,10.0,52,0.00,,,0.00,meteohub,2013-03-07 03:01:00,
2013-03-06 22:06:00,55.9,39.0,30.08,WNW,298,2.0,8.0,53,0.00,,,0.00,meteohub,2013-03-07 03:06:00,
2013-03-06 22:11:00,55.8,39.4,30.08,NW,313,0.0,11.0,54,0.00,,,0.00,meteohub,2013-03-07 03:11:00,
2013-03-06 22:16:00,55.6,39.2,30.09,NW,313,5.0,11.0,54,0.00,,,0.00,meteohub,2013-03-07 03:16:00,
2013-03-06 22:21:00,55.4,39.6,30.09,WNW,284,4.0,11.0,55,0.00,,,0.00,meteohub,2013-03-07 03:21:00,
2013-03-06 22:26:00,55.2,39.7,30.09,NW,320,0.0,8.0,56,0.00,,,0.00,meteohub,2013-03-07 03:26:00,
2013-03-06 22:31:00,55.0,40.1,30.09,WNW,284,3.0,13.0,57,0.00,,,0.00,meteohub,2013-03-07 03:31:00,
2013-03-06 22:37:00,54.9,39.9,30.09,NNW,331,1.0,13.0,57,0.00,,,0.00,meteohub,2013-03-07 03:37:00,
2013-03-06 22:42:00,54.7,40.3,30.09,WNW,283,4.0,13.0,58,0.00,,,0.00,meteohub,2013-03-07 03:42:00,
2013-03-06 22:47:00,54.3,40.3,30.09,NW,309,1.0,9.0,59,0.00,,,0.00,meteohub,2013-03-07 03:47:00,
2013-03-06 22:52:00,54.1,40.6,30.09,NNW,330,4.0,9.0,60,0.00,,,0.00,meteohub,2013-03-07 03:52:00,
2013-03-06 22:57:00,54.0,40.5,30.09,WNW,298,2.0,9.0,60,0.00,,,0.00,meteohub,2013-03-07 03:57:00,
2013-03-06 23:02:00,53.8,40.6,30.10,North,355,1.0,9.0,61,0.00,,,0.00,meteohub,2013-03-07 04:02:00,
2013-03-06 23:07:00,53.6,40.8,30.10,NW,309,4.0,9.0,62,0.00,,,0.00,meteohub,2013-03-07 04:07:00,
2013-03-06 23:12:00,53.4,41.2,30.10,West,271,2.0,8.0,63,0.00,,,0.00,meteohub,2013-03-07 04:12:00,
2013-03-06 23:17:00,53.2,41.0,30.10,NNW,341,2.0,7.0,63,0.00,,,0.00,meteohub,2013-03-07 04:17:00,
2013-03-06 23:22:00,53.1,40.8,30.10,NW,312,0.0,8.0,63,0.00,,,0.00,meteohub,2013-03-07 04:22:00,
2013-03-06 23:27:00,53.1,41.2,30.10,NNW,339,3.0,10.0,64,0.00,,,0.00,meteohub,2013-03-07 04:27:00,
2013-03-06 23:32:00,53.1,41.2,30.10,NNW,338,1.0,11.0,64,0.00,,,0.00,meteohub,2013-03-07 04:32:00,
2013-03-06 23:37:00,52.9,41.0,30.10,North,350,2.0,11.0,64,0.00,,,0.00,meteohub,2013-03-07 04:37:00,
2013-03-06 23:42:00,52.9,41.0,30.10,NNW,346,3.0,11.0,64,0.00,,,0.00,meteohub,2013-03-07 04:42:00,
2013-03-06 23:47:00,52.9,41.0,30.10,NW,325,6.0,9.0,64,0.00,,,0.00,meteohub,2013-03-07 04:47:00,
2013-03-06 23:52:00,52.7,40.5,30.10,North,350,3.0,11.0,63,0.00,,,0.00,meteohub,2013-03-07 04:52:00,
2013-03-06 23:57:00,52.5,40.3,30.10,NNE,15,1.0,11.0,63,0.00,,,0.00,meteohub,2013-03-07 04:57:00,